This demonstration page uses our WeatherBlox Daily Observations layout. Learn more.

Left ArrowRight Arrow

38.80484, -77.04692

Hourly Observations for May 2, 2015

Temp ( °F °C ) Dew Point ( °F °C ) Humidity (%) Winds ( mph kmh ) Pressure ( in mb ) Visibility ( mi km ) Precip ( " mm )
12:52 am 00:52 Cloudy 58 14.4 44 6.7 60 60 N N/A 29.98 1015 10 16 N/A
1:52 am 01:52 Cloudy 54 12.2 46 7.8 75 75 SSE 5 7 29.98 1015 10 16 N/A
2:52 am 02:52 Cloudy 53 11.7 46 7.8 77 77 SSE 5 7 29.97 1015 10 16 N/A
3:52 am 03:52 Mostly Cloudy 52 11.1 45 7.2 77 77 SE 5 7 29.98 1015 10 16 N/A
4:52 am 04:52 Cloudy 51 10.6 43 6.1 74 74 SE 6 9 29.98 1015 10 16 N/A
5:52 am 05:52 Mostly Cloudy 52 11.1 43 6.1 72 72 SSE 5 7 29.99 1016 10 16 N/A
6:52 am 06:52 Mostly Cloudy 53 11.7 44 6.7 72 72 S 3 6 30.01 1016 10 16 N/A
7:52 am 07:52 Mostly Cloudy 54 12.2 44 6.7 69 69 S 5 7 30.02 1017 10 16 N/A
8:52 am 08:52 Mostly Cloudy 58 14.4 46 7.8 65 65 N N/A 30.03 1017 10 16 N/A
9:52 am 09:52 Partly Cloudy 60 15.6 47 8.3 62 62 N N/A 30.03 1017 10 16 N/A
10:52 am 10:52 Mostly Sunny 65 18.3 48 8.9 54 54 N N/A 30.03 1017 10 16 N/A
11:52 am 11:52 Partly Cloudy 69 20.6 48 8.9 47 47 N N/A 30.02 1017 10 16 N/A
12:52 pm 12:52 Cloudy 71 21.7 45 7.2 39 39 NNW 5 7 30.01 1016 10 16 N/A
1:52 pm 13:52 Mostly Cloudy 74 23.3 44 6.7 34 34 N N/A 30.00 1016 10 16 N/A
2:52 pm 14:52 Mostly Cloudy 76 24.4 46 7.8 35 35 WNW 8 13 29.99 1016 10 16 N/A
3:52 pm 15:52 Mostly Cloudy 76 24.4 44 6.7 32 32 N 8 13 29.98 1015 10 16 N/A
4:52 pm 16:52 Mostly Cloudy 74 23.3 43 6.1 33 33 NNW 9 15 29.97 1015 10 16 N/A
5:52 pm 17:52 Mostly Cloudy 74 23.3 42 5.6 32 32 NNW 7 11 29.97 1015 10 16 N/A
6:52 pm 18:52 Partly Cloudy 74 23.3 42 5.6 32 32 NNW 8 13 29.98 1015 10 16 N/A
7:52 pm 19:52 Partly Cloudy 72 22.2 40 4.4 31 31 W 5 7 29.98 1015 10 16 N/A
8:52 pm 20:52 Partly Cloudy 67 19.4 47 8.3 49 49 SSW 5 7 29.99 1016 10 16 N/A
9:52 pm 21:52 Clear 63 17.2 51 10.6 65 65 S 8 13 30.01 1016 10 16 N/A
10:52 pm 22:52 Clear 63 17.2 48 8.9 58 58 S 8 13 30.02 1017 10 16 N/A
11:52 pm 23:52 Clear 61 16.1 46 7.8 58 58 SSW 5 7 30.03 1017 10 16 N/A

Powered by AerisWeather